Location: *
(40.4000°N, 15.1200°E)
Time: 22:08:05
(UTC+00:00)

CZ-4 R/B - Pass Details

Date: 09 April 2020
Orbit: 532 x 598 km, 97.8° (Epoch: 23 May)

Event Time Altitude Azimuth Distance (km) Brightness Sun altitude
Rises 17:55:24 0° 185° (S) 2,664 4.7 -5.0°
Reaches altitude 10° 17:57:37 10° 194° (SSW) 1,777 3.9 -5.5°
Maximum altitude 18:01:09 36° 262° (W) 863 3.1 -6.1°
Drops below altitude 10° 18:04:44 10° 330° (NNW) 1,794 4.7 -6.8°
Sets 18:06:59 0° 339° (NNW) 2,695 5.4 -7.2°
